Miscellaneous Local Product
Issued by NWS Hastings, NE

Home | Current Version | Previous Version | Graphics & Text | Print | Product List | Glossary On
Versions: 1 2 3 4 5 6 7 8 9 10 11 12 13 14 15 16 17 18 19 20 21 22 23 24 25 26 27 28 29 30 31 32 33 34 35 36 37 38 39 40 41 42 43 44 45 46 47 48 49 50
000
AXUS43 KGID 221102
MISGRI

GID CWA HOURLY WEATHER ROUNDUP
NATIONAL WEATHER SERVICE HASTINGS NE
600 AM CDT SUN OCT 22 2017

NOTE: "FAIR" INDICATES FEW OR NO CLOUDS BELOW 12,000 FEET WITH NO
SIGNIFICANT WEATHER AND/OR OBSTRUCTIONS TO VISIBILITY.

...SOUTH CENTRAL NEBRASKA...

CITY           SKY/WX    TMP DP  RH WIND       PRES   REMARKS
GRAND ISLAND   CLEAR     36  33  89 W5        30.11R WCI  32
KEARNEY        CLEAR     32  27  81 CALM      30.11S
HASTINGS       CLEAR     36  30  79 W5        30.12R WCI  32
ORD            CLEAR     29  27  92 CALM      30.09R
YORK           CLEAR     37  36  93 W8        30.11R WCI  31
AURORA         CLEAR     37  33  88 W6        30.10R WCI  32
LEXINGTON      CLEAR     31  26  82 W3        30.12R
HOLDREGE       CLEAR     32  27  81 SW6       30.12R WCI  27
HEBRON         CLEAR     38  36  90 W3        30.13R

...NEBRASKA PANHANDLE...

CITY           SKY/WX    TMP DP  RH WIND       PRES   REMARKS
CHADRON        CLEAR     22  14  71 W5        30.01F WCI  16
ALLIANCE       CLEAR     28  20  71 SW12      30.06R WCI  18
SCOTTSBLUFF    CLEAR     34  18  52 CALM      30.08R
SIDNEY         CLEAR     26  19  74 W10       30.11F WCI  16

...WESTERN AND NORTH CENTRAL NEBRASKA...

CITY           SKY/WX    TMP DP  RH WIND       PRES   REMARKS
VALENTINE      CLEAR     27  24  89 SW7       30.03S WCI  19
AINSWORTH      CLEAR     34  28  79 SW6       30.03F WCI  29
ONEILL         CLEAR     35  31  86 SW6       30.07R WCI  30
BROKEN BOW     CLEAR     27  23  85 CALM      30.08R
IMPERIAL       CLEAR     37  22  54 W7        30.14R WCI  32
NORTH PLATTE   CLEAR     29  25  85 CALM      30.11R
MCCOOK         CLEAR     33  23  66 SW9       30.14S WCI  25

...EASTERN NEBRASKA...

CITY           SKY/WX    TMP DP  RH WIND       PRES   REMARKS
NORFOLK        CLEAR     35  30  82 W3        30.07R
SO SIOUX CITY  CLEAR     36  35  96 CALM      30.04R
TEKAMAH        CLOUDY    39  36  89 CALM      30.06R
COLUMBUS       CLEAR     37  33  85 W5        30.09R WCI  33
ALBION         CLEAR     29  27  90 NW3       30.08R
OMAHA EPPLEY   CLOUDY    48  38  68 CALM      30.06R
OFFUTT AFB     PTCLDY    46  40  80 SW3       30.06R
MILLARD        MOCLDY    45  42  90 CALM      30.08R
LINCOLN        CLOUDY    44  37  76 CALM      30.10R
NEBRASKA CITY  MOCLDY    46  43  90 W6        30.08R
BEATRICE       CLOUDY    42  39  89 CALM      30.11R
FALLS CITY     CLOUDY    48  42  80 W7        30.07R

...NORTHERN KANSAS...

CITY           SKY/WX    TMP DP  RH WIND       PRES   REMARKS
GOODLAND       CLEAR     31  21  66 W6        30.17R WCI  25
HILL CITY      CLEAR     35  26  69 W5        30.16R WCI  31
NORTON         SUNNY     34  23  64 W8        30.14R WCI  27
PHILLIPSBURG   CLEAR     32  27  80 W5        30.16R WCI  27
SMITH CENTER   CLEAR     28  28 100 SW3       30.15R
HAYS           CLEAR     35  27  72 NW10      30.17R WCI  27
RUSSELL        CLEAR     35  35 100 W8        30.15R WCI  29
CONCORDIA      CLEAR     42  38  85 W7        30.14R
SALINA         CLEAR     44  39  82 CALM      30.15R
TOPEKA         CLOUDY    49  47  93 W6        30.09R



USA.gov is the U.S. government's official web portal to all federal, state and local government web resources and services.